GFSSE_500_rhum_153.txt.gz
RH
53 30 18 20 19 18 12 6 3 2 2 3 2 2 4 4 5 5 6 5 5 5 5 4 4 3 3 3 4 5 9 9 10 8 9 10 9 7 7 8 8 19 47
70 22 17 19 21 26 17 8 4 3 3 3 4 4 4 4 5 6 6 5 4 4 4 4 4 4 3 3 3 4 7 8 12 11 17 43 28 8 14 31 58 52 58
31 20 19 20 20 19 24 16 6 3 3 3 4 4 4 4 5 6 5 5 4 3 4 4 4 4 3 3 3 3 4 8 10 11 19 48 35 27 25 32 39 52 67
17 17 18 18 18 19 19 16 12 5 3 3 3 3 4 4 5 5 5 4 4 4 4 4 4 3 3 3 3 3 4 6 7 13 18 42 34 27 33 41 44 82 94
16 16 17 18 18 19 18 18 15 8 4 3 3 3 3 3 4 4 4 4 4 4 3 3 4 4 4 4 3 3 4 5 8 13 35 53 45 24 33 55 72 97 99
18 18 20 19 20 20 19 16 15 12 8 5 3 3 3 3 3 4 4 4 4 4 4 4 4 4 4 4 4 3 4 5 8 10 75 55 35 28 32 60 64 83 94
20 21 22 22 21 22 20 20 20 18 16 9 7 4 4 4 3 3 4 4 4 4 4 4 4 4 4 4 4 4 4 5 7 12 39 67 32 31 37 39 51 83 85
22 23 23 22 19 18 18 19 21 23 24 22 18 13 8 5 4 5 4 4 4 4 4 4 4 4 4 4 4 4 4 5 7 10 39 75 72 30 45 44 54 78 94
24 25 25 22 19 18 15 15 17 21 24 25 26 25 24 21 17 13 8 6 6 6 6 5 4 4 4 5 4 3 4 6 6 10 16 29 41 31 48 52 52 58 68
26 29 28 25 22 21 19 16 15 18 20 22 26 26 26 26 26 25 22 18 14 12 10 9 7 6 5 4 4 4 5 6 7 10 13 23 28 26 48 61 48 72 82
28 18 24 28 23 21 19 17 16 14 15 20 24 26 26 25 25 28 30 28 26 22 18 15 12 9 7 6 6 6 7 8 8 8 14 18 36 42 50 57 62 88 95
22 21 23 28 31 27 25 24 21 17 16 16 19 25 28 27 24 24 27 31 30 30 26 21 16 15 14 12 12 12 11 11 10 8 10 15 38 38 26 47 66 90 93
23 22 21 22 26 31 28 31 28 24 23 20 18 20 25 29 31 29 24 26 27 30 32 30 24 21 20 17 16 16 15 14 12 9 10 14 35 24 21 48 57 83 85
29 29 30 30 76 54 30 24 26 27 26 27 27 27 27 33 34 35 33 27 27 34 43 36 34 32 28 25 23 21 20 21 16 19 19 14 32 30 30 30 68 78 86
32 31 30 30 38 40 84 45 28 28 32 35 34 35 33 37 38 35 39 30 26 25 32 45 45 40 36 35 34 32 28 24 20 17 16 18 17 34 34 26 54 70 86
38 39 37 34 37 42 36 41 76 58 37 40 43 59 62 44 38 40 49 47 38 32 20 25 30 37 39 37 40 41 39 33 27 26 19 11 12 21 38 28 53 78 93
35 37 37 34 32 37 44 33 28 41 90 52 55 74 78 60 49 36 36 48 56 41 28 18 22 37 38 33 40 45 51 47 36 30 32 22 12 21 38 32 62 88 97
38 40 36 34 34 31 30 27 26 25 30 64 96 90 97 88 69 48 34 28 48 52 35 30 34 30 42 29 46 49 48 55 48 39 40 38 24 14 28 44 36 81 93
35 31 31 26 27 28 27 32 31 28 28 28 70 76 93 84 86 60 41 35 32 42 30 42 55 42 36 28 21 29 40 38 57 60 50 52 50 26 15 50 48 36 69
29 34 36 37 34 30 32 26 28 29 28 31 38 59 79 84 83 76 72 48 42 36 35 30 42 58 38 19 23 16 22 36 55 81 76 59 66 60 30 27 59 53 32
26 27 30 33 33 34 35 34 31 30 31 27 21 22 90 93 86 100 86 69 47 41 28 17 42 53 70 74 43 33 43 41 39 57 82 70 63 65 47 30 50 62 53
26 25 26 27 24 23 22 22 24 28 29 28 27 20 27 64 67 92 96 97 95 50 24 15 29 51 85 91 61 44 51 56 53 52 60 67 70 72 73 60 37 54 77
26 26 24 22 19 17 15 14 15 16 17 25 25 22 16 15 24 82 86 84 92 100 91 39 54 74 90 72 96 65 40 36 58 51 40 58 58 76 90 79 60 31 66
23 24 24 21 19 17 14 12 10 10 10 10 12 24 22 14 12 23 62 96 61 60 73 94 94 99 93 96 97 99 83 45 52 57 65 44 48 54 78 92 90 39 31
16 16 18 16 16 15 13 11 10 10 10 11 13 10 13 23 17 12 12 39 94 78 57 81 86 96 90 79 88 99 90 63 64 80 82 84 77 55 53 81 98 68 44
25 22 18 16 15 14 14 13 12 10 10 14 16 18 16 13 23 20 12 12 47 40 64 78 84 81 96 93 100 98 96 96 93 87 96 97 99 66 76 73 79 95 96

GFSSE_500_rhum_156.txt.gz
RH
64 58 22 20 20 20 15 12 7 4 3 3 3 2 2 4 4 5 6 6 5 4 3 4 4 4 4 3 3 3 4 4 7 9 11 13 12 34 14 16 26 25 18
61 39 20 20 20 26 21 14 9 4 3 3 4 4 4 4 4 5 6 6 5 4 4 4 4 4 3 3 3 3 3 4 5 8 10 18 33 23 19 21 30 43 54
20 17 18 18 18 19 24 20 13 6 4 3 3 4 4 4 4 5 5 5 5 4 4 4 4 3 3 3 3 3 3 3 4 5 10 23 36 40 17 28 36 34 37
17 17 18 18 17 19 21 20 17 11 5 4 3 3 3 4 4 4 4 4 4 4 4 4 3 3 3 3 3 3 3 3 4 5 7 39 42 35 14 24 40 66 69
16 17 16 17 18 18 19 20 18 14 10 5 3 3 3 3 3 3 3 3 4 4 4 4 4 3 3 3 3 3 3 3 3 5 6 41 42 22 20 24 25 59 79
15 17 18 18 18 20 21 22 20 18 16 10 8 4 3 3 3 3 3 3 3 4 4 4 4 4 3 3 3 3 3 3 3 5 6 34 46 32 19 35 36 44 67
19 20 21 21 20 19 20 21 23 23 21 19 17 12 8 5 4 3 3 3 3 4 4 4 4 4 3 3 3 3 3 3 3 5 6 12 51 41 24 32 34 48 75
22 23 23 23 22 20 18 17 17 19 23 24 25 23 22 19 13 9 7 7 6 5 5 4 4 4 4 4 5 4 4 3 4 5 7 10 16 25 26 32 42 43 56
25 27 26 24 23 23 22 21 18 18 18 19 22 25 24 23 23 24 22 21 17 14 11 8 8 8 7 6 6 5 4 4 5 7 7 8 15 32 31 28 42 38 56
28 29 30 30 28 26 26 26 25 22 19 19 21 22 26 26 24 22 24 26 27 27 24 20 17 14 12 10 8 6 6 7 8 9 9 8 13 35 33 35 37 58 80
30 33 30 25 26 26 27 27 26 24 22 19 20 22 25 29 31 29 27 26 28 31 34 31 27 23 18 14 12 11 12 11 12 12 11 8 10 22 19 22 26 45 67
24 29 32 36 32 28 27 26 27 28 27 25 22 22 24 26 29 34 32 30 29 29 33 36 35 31 24 19 17 16 16 15 15 15 14 11 14 19 25 16 35 42 54
30 30 30 34 38 39 43 52 73 71 39 36 34 29 25 28 29 30 35 33 32 33 34 38 42 39 34 28 27 25 24 22 20 19 17 21 16 16 32 26 23 41 58
31 32 35 34 33 33 36 47 62 66 90 46 43 37 33 33 35 32 32 36 35 36 38 39 44 48 42 38 35 33 32 31 28 26 22 18 17 18 21 30 22 45 68
38 37 37 38 38 37 43 45 49 48 68 92 74 50 46 40 34 31 31 35 39 40 43 38 37 40 44 46 44 38 38 39 38 35 30 25 21 18 19 29 30 34 51
44 41 37 36 37 41 41 40 47 55 59 48 82 96 98 88 59 39 34 43 41 45 45 39 33 40 35 35 40 38 34 39 49 48 43 32 26 18 15 25 39 32 68
38 30 26 26 29 31 34 37 36 33 43 60 53 51 85 100 96 81 60 38 46 54 50 44 36 31 30 22 44 48 29 41 52 60 58 50 36 27 21 14 46 38 83
35 31 26 23 24 24 24 30 40 40 31 29 36 42 50 66 69 90 95 86 70 54 56 50 46 40 43 25 32 43 22 16 43 58 64 64 52 42 32 24 15 53 52
41 40 39 35 30 30 30 26 27 33 38 36 28 30 58 60 72 80 94 100 80 66 48 50 35 46 60 41 42 26 26 26 35 59 68 68 74 60 52 33 17 27 56
26 26 25 25 26 26 28 30 28 28 34 34 35 30 31 46 68 50 64 75 96 79 74 59 46 48 52 60 42 25 23 30 28 38 52 81 75 71 65 57 41 23 41
29 27 28 28 27 25 25 24 24 26 24 28 33 36 31 31 27 39 38 45 95 89 92 97 62 66 71 54 60 63 70 58 33 30 38 36 67 64 72 72 51 44 29
27 23 21 21 28 29 29 27 24 22 23 22 21 22 28 29 26 24 24 25 84 90 89 90 92 69 74 68 80 97 97 91 88 67 45 70 71 70 76 81 76 61 56
17 18 19 21 23 22 22 22 22 22 22 21 18 15 14 15 20 25 24 23 22 50 93 77 87 98 80 67 85 99 95 89 89 98 92 74 66 68 54 67 81 77 68
12 11 12 11 10 10 12 12 13 14 14 13 13 13 13 14 12 10 12 18 23 38 68 64 90 93 97 92 95 84 86 94 95 93 97 97 61 57 50 53 68 88 96
16 12 10 10 9 9 9 9 10 11 11 11 14 12 11 11 10 11 11 12 8 14 22 54 61 93 98 98 96 94 84 93 96 93 94 100 97 83 78 78 70 78 88
20 16 14 18 19 18 18 19 16 14 14 14 14 13 12 12 11 10 8 13 14 10 9 19 33 70 94 91 94 94 96 91 86 93 100 94 96 100 91 93 80 91 86

GFSSE_500_rhum_162.txt.gz
RH
22 23 28 35 24 22 17 20 21 15 11 5 4 4 4 4 4 4 4 5 5 6 6 5 4 4 4 3 3 3 3 3 3 3 3 3 4 16 26 13 11 12 25
20 21 24 37 23 22 19 18 19 17 15 10 5 4 4 4 4 4 5 6 6 6 6 4 4 4 4 3 3 3 3 3 3 3 3 3 4 14 24 20 14 16 18
18 23 26 26 24 20 20 21 22 20 20 16 11 6 4 4 4 5 5 5 5 5 5 4 4 4 4 4 4 4 4 4 3 3 3 3 4 10 19 34 28 16 26
21 26 23 19 21 19 20 21 24 26 26 23 19 14 9 4 4 4 4 5 5 4 4 4 4 4 4 4 4 4 4 3 4 4 4 3 5 8 17 26 22 19 23
17 17 17 17 18 18 19 22 25 28 28 26 23 22 19 14 10 5 4 4 4 4 4 4 4 4 4 4 4 4 4 3 4 5 4 4 5 7 11 17 19 22 22
18 18 16 16 18 18 20 22 23 25 26 27 27 27 26 24 23 19 14 10 7 5 5 4 4 4 4 4 4 4 4 5 6 6 4 4 6 8 11 26 27 23 26
20 19 19 19 21 24 23 23 24 24 22 23 25 26 28 28 27 27 27 27 24 20 16 14 12 11 10 9 8 8 8 8 7 5 5 6 8 10 20 23 24 22 28
29 25 22 21 22 24 27 29 30 30 27 24 23 23 25 27 29 29 29 29 28 26 24 24 24 25 24 22 19 18 15 12 10 8 9 9 10 11 13 32 23 28 29
28 27 26 27 25 28 36 34 32 29 25 26 28 26 24 23 25 29 31 30 31 29 25 23 22 24 26 28 27 25 24 19 15 13 13 13 13 13 16 29 22 18 22
24 23 26 27 25 26 35 36 34 31 31 30 29 36 51 64 74 45 28 33 33 31 31 26 25 26 26 27 29 30 28 24 20 18 17 17 17 16 21 19 23 20 21
24 31 35 33 39 39 38 40 40 35 35 35 38 41 47 55 70 76 71 35 36 36 34 31 30 35 34 31 35 32 29 28 26 27 29 28 26 22 23 25 17 28 24
44 40 42 43 40 42 43 40 39 41 41 42 46 44 44 56 68 84 84 68 38 41 41 39 36 38 41 37 35 40 39 37 34 34 35 35 33 31 23 24 16 19 29
55 54 47 43 44 42 41 40 39 42 46 46 53 55 50 54 67 75 86 88 61 49 44 42 42 46 42 46 40 38 45 47 42 43 42 41 39 38 31 28 22 14 23
50 48 50 51 45 43 43 41 41 40 40 40 43 45 58 60 63 70 91 96 96 92 59 52 59 52 47 49 46 43 46 42 48 47 48 43 41 41 39 32 25 22 19
46 46 47 49 55 53 49 47 46 46 45 45 46 48 48 52 62 72 92 100 81 90 96 80 82 87 62 48 49 45 50 51 44 46 47 48 41 31 45 40 32 20 14
50 52 52 49 45 42 38 36 38 40 42 43 43 43 43 41 43 57 65 72 83 80 86 86 85 69 87 75 58 55 54 48 56 56 45 51 44 27 39 44 46 35 20
55 53 49 44 41 41 38 35 33 32 34 36 36 36 38 41 44 45 44 43 65 79 88 94 97 77 79 77 82 63 65 58 47 60 51 42 41 28 23 40 44 46 35
48 39 39 41 40 40 39 38 36 34 32 31 31 30 31 31 32 36 37 39 42 40 54 94 97 71 84 97 94 97 78 68 63 50 54 45 36 32 34 37 40 51 40
29 24 21 23 23 24 24 22 21 21 20 21 22 21 21 22 23 23 29 35 38 39 38 48 72 79 69 80 100 97 96 79 62 62 48 47 41 29 33 42 41 49 60
28 26 25 23 22 18 15 17 16 17 18 22 21 16 17 19 18 18 21 22 27 37 39 36 47 62 71 86 72 93 99 82 71 59 70 67 45 32 38 36 52 44 61
30 34 37 36 34 28 20 14 16 16 16 16 15 14 13 10 9 11 13 15 19 25 33 39 39 39 59 66 79 55 77 100 70 77 67 79 75 62 44 49 40 53 39
20 22 27 34 35 37 30 20 15 16 17 15 14 12 11 10 9 9 9 10 16 20 23 27 33 33 36 91 73 75 55 79 100 85 97 84 90 80 79 72 67 48 57
18 21 25 28 28 27 25 23 23 23 22 23 24 22 21 18 16 14 11 9 10 11 16 23 23 24 22 31 46 67 80 92 88 100 97 94 96 93 96 92 88 77 86
23 26 30 33 35 35 38 38 36 31 30 28 26 24 22 22 21 17 16 14 11 10 10 12 20 20 20 17 25 42 50 53 67 99 100 99 99 98 99 95 96 96 95
25 27 26 30 40 43 35 29 26 23 20 18 18 21 24 24 23 27 26 24 21 20 16 12 12 15 16 16 17 19 26 33 35 68 100 88 93 100 97 97 97 97 97
46 52 48 38 28 26 23 22 22 24 29 29 29 29 28 28 25 24 23 20 16 14 15 17 17 14 14 16 13 14 16 20 27 29 72 96 94 97 90 96 96 97 97

GFSSE_500_rhum_165.txt.gz
RH
34 22 26 26 30 42 21 18 15 14 14 9 4 4 5 5 4 5 4 4 5 6 6 6 5 4 4 4 4 4 4 4 4 3 3 3 3 3 5 10 23 28 15
33 21 22 24 26 27 25 19 16 16 15 15 12 5 4 4 5 5 5 6 6 6 6 6 5 4 4 4 4 4 4 4 4 3 3 3 4 3 5 11 24 20 18
32 19 21 23 19 20 21 17 17 18 18 17 16 14 9 4 3 4 5 5 5 6 5 5 5 4 4 4 4 4 4 4 4 3 3 4 4 4 5 9 19 18 19
32 21 21 19 18 19 18 18 18 20 21 22 20 19 18 15 8 4 3 3 4 4 4 4 4 4 4 4 4 4 4 3 3 4 4 5 4 4 6 8 19 23 24
35 24 22 21 20 20 20 20 22 22 23 24 25 24 23 21 20 16 11 6 5 4 4 4 4 4 4 4 4 4 4 4 5 6 6 6 4 4 7 12 17 20 21
33 28 22 20 19 20 20 23 25 26 27 27 26 25 26 26 23 20 19 19 19 20 16 14 12 11 10 9 8 8 9 9 10 9 8 6 5 6 8 16 21 17 19
41 29 24 23 20 21 22 24 27 28 31 30 30 29 29 28 26 25 22 20 19 19 19 20 22 22 22 21 21 20 18 17 16 14 12 9 8 9 10 14 27 19 16
40 32 27 23 24 29 30 34 36 36 32 31 28 25 24 28 32 35 43 32 23 21 22 22 22 21 21 21 22 24 26 25 23 20 16 14 12 12 14 15 22 20 19
30 29 28 24 25 29 29 27 28 36 36 32 28 28 27 27 33 42 48 56 56 30 26 25 26 26 27 25 22 20 22 27 27 24 20 17 16 17 19 20 19 16 23
36 36 32 32 32 29 30 31 30 28 34 32 31 30 29 31 34 39 43 50 60 67 54 37 30 30 30 31 28 26 24 26 27 26 24 22 24 25 26 23 22 17 19
48 46 44 42 38 37 31 30 32 33 31 34 36 34 33 33 37 39 40 46 60 67 73 53 45 39 36 36 36 30 24 27 31 31 31 30 32 32 29 27 23 21 16
48 49 49 49 47 46 46 44 38 32 35 38 38 37 42 43 44 47 46 49 54 61 76 83 62 47 45 36 37 38 34 25 29 36 38 37 37 37 32 30 27 24 19
40 45 48 45 43 45 46 44 47 44 41 39 38 37 37 38 42 48 55 61 64 66 72 79 90 82 77 64 55 44 44 37 24 31 40 42 42 39 34 28 30 34 22
37 36 35 34 34 39 43 51 55 53 52 51 50 48 49 50 51 51 56 60 64 69 64 60 76 79 100 98 80 87 63 51 38 21 26 34 37 33 30 20 28 34 30
40 36 34 36 36 35 35 39 47 49 48 48 47 47 45 42 42 42 43 45 53 65 68 69 71 68 61 79 79 82 96 74 58 40 21 24 30 29 31 16 28 40 36
48 45 42 42 40 36 38 37 37 39 41 39 38 37 34 34 34 33 34 36 40 43 42 50 53 69 70 61 70 71 90 97 82 60 49 27 21 22 24 23 21 32 43
53 51 48 44 31 26 24 26 31 30 29 31 34 36 37 36 35 35 35 35 35 36 36 36 35 38 48 68 86 89 78 98 100 92 71 55 22 18 16 26 16 20 27
49 52 52 50 32 30 23 19 18 16 16 17 18 18 22 24 24 24 23 22 22 26 31 35 37 37 35 47 60 88 68 72 90 97 96 84 44 22 18 19 28 23 25
37 38 41 41 32 32 31 31 30 30 28 23 16 14 14 15 17 19 22 24 24 23 23 22 27 29 32 37 34 50 84 71 70 81 100 97 81 39 24 26 25 33 31
36 35 33 32 29 25 20 18 19 21 24 26 28 23 15 12 13 14 12 12 13 14 17 20 19 22 22 25 33 34 38 59 61 65 72 95 96 74 46 39 38 30 41
24 20 19 19 18 18 18 19 22 26 29 28 25 24 22 18 15 13 14 16 14 12 11 10 14 12 13 14 21 28 33 92 85 55 70 76 98 100 89 77 70 49 40
18 19 20 22 23 23 20 20 26 33 33 32 29 29 29 29 30 31 30 29 26 25 22 20 19 14 12 15 10 14 22 35 59 92 72 86 82 96 96 95 88 88 70
25 26 27 27 28 26 23 23 24 28 32 38 42 39 35 31 29 27 26 24 22 22 20 20 20 20 16 14 17 11 10 19 34 37 91 96 85 75 90 98 92 92 93
34 35 35 34 32 28 28 27 31 34 33 28 23 22 21 21 20 19 18 17 16 18 16 16 21 24 20 16 13 15 11 9 21 26 36 87 96 91 94 96 94 95 95
41 40 37 32 31 34 34 31 25 20 19 22 25 27 27 27 26 23 22 20 20 20 21 20 21 25 29 27 18 11 18 15 11 17 22 33 71 92 71 86 99 98 98
39 40 42 40 37 34 32 27 23 29 35 34 28 28 26 24 20 14 10 9 8 8 8 11 13 18 21 24 22 21 12 16 18 15 18 21 26 53 68 69 89 95 98

GFSSE_500_rhum_168.txt.gz
RH
36 32 20 20 23 21 19 16 16 15 16 16 11 4 3 3 4 4 4 4 4 5 6 6 7 5 4 4 4 4 4 4 3 3 3 3 3 3 4 4 6 13 16
34 32 20 22 21 20 19 20 18 17 18 18 18 15 8 4 3 4 4 4 5 5 6 6 6 5 4 4 3 3 3 3 3 3 3 3 3 3 4 4 5 9 18
37 33 21 18 19 19 20 21 20 19 21 23 23 21 18 15 9 4 3 4 4 4 4 5 4 4 4 3 3 3 3 3 3 3 3 3 4 5 5 4 5 8 15
39 37 25 20 18 18 19 20 20 22 23 25 26 26 25 23 21 20 15 7 4 3 3 4 4 4 4 4 4 3 4 3 4 4 4 6 6 6 5 5 7 12 15
40 40 31 24 20 19 18 19 20 21 23 25 25 25 25 25 25 22 21 21 20 19 17 12 9 7 6 6 7 8 9 10 11 10 11 10 9 6 6 6 7 13 18
43 37 33 28 22 21 19 19 19 21 24 25 28 27 25 22 22 24 28 28 25 22 21 23 20 18 18 18 17 17 18 18 18 17 17 15 13 12 8 8 8 12 19
55 43 37 31 27 23 22 24 24 25 28 30 28 27 26 23 21 22 21 20 24 29 30 26 25 22 18 17 16 15 14 13 14 16 19 18 17 14 12 10 11 12 15
37 40 35 28 25 23 23 23 22 24 24 28 35 34 30 26 24 23 23 26 34 46 44 40 34 26 24 21 20 20 19 15 13 14 15 16 17 16 14 15 13 14 14
36 31 28 27 26 26 25 28 29 29 25 23 22 27 30 28 29 28 27 28 34 44 54 64 61 48 36 32 26 24 24 23 19 14 14 15 16 17 17 17 20 19 16
45 44 44 43 40 34 30 26 23 24 24 24 25 26 27 31 31 32 32 39 45 45 44 47 55 74 55 40 36 29 28 27 25 19 15 18 20 20 24 26 22 21 19
38 42 45 48 50 48 45 43 42 42 37 34 34 35 36 37 37 37 39 39 41 45 47 52 59 59 86 71 42 42 41 35 33 30 19 18 24 27 26 28 26 19 20
34 35 39 42 47 51 51 49 50 49 46 43 42 40 40 38 40 51 52 44 48 52 56 58 65 71 67 92 88 76 77 59 54 51 33 20 18 28 32 31 26 18 16
35 34 33 33 34 35 35 34 36 38 45 53 52 47 46 46 45 46 49 54 62 57 60 67 70 86 90 82 81 86 90 86 70 72 62 36 21 17 26 28 22 18 14
43 48 45 40 37 34 36 39 40 39 41 44 50 50 49 47 45 45 44 41 39 39 40 57 63 65 80 83 83 79 78 87 87 90 84 62 40 25 19 21 16 17 13
44 48 44 42 42 40 37 33 26 25 31 37 39 39 38 36 34 33 32 33 33 32 31 34 36 46 57 65 73 74 81 88 81 84 90 90 78 54 31 20 21 25 16
41 39 40 40 41 41 37 32 24 23 20 18 19 20 21 26 32 33 33 34 34 34 34 34 33 32 33 43 51 58 53 72 85 99 98 96 98 86 71 33 19 23 28
45 43 44 48 47 49 46 43 30 27 27 26 24 23 21 20 18 18 21 24 24 25 26 28 30 34 36 36 36 36 54 53 65 85 99 96 100 98 86 91 29 19 20
51 51 53 48 41 39 40 44 44 34 30 26 21 16 14 15 19 23 23 18 17 22 24 26 27 27 26 27 28 38 37 39 50 70 89 98 88 96 98 95 76 29 23
55 51 45 39 37 36 33 30 29 25 21 18 17 18 17 16 16 16 17 18 20 18 13 15 18 18 20 19 20 22 25 34 32 43 66 91 99 89 94 100 95 57 38
39 39 38 37 36 26 18 17 18 18 19 21 22 22 22 20 17 18 19 20 20 20 20 18 14 15 15 14 13 12 12 19 27 31 39 61 91 96 95 86 100 84 55
33 33 30 24 22 20 20 20 22 26 30 31 30 28 25 22 22 25 28 27 24 24 26 27 25 23 20 18 18 14 11 11 13 19 25 35 49 80 100 92 94 98 61
34 31 27 25 24 26 29 35 37 36 35 34 34 35 34 30 26 23 21 20 20 20 20 21 21 22 24 25 24 21 19 16 12 10 12 22 29 52 87 100 87 97 86
35 31 30 31 34 37 41 41 37 35 37 36 34 29 25 22 19 16 16 16 15 14 14 14 14 15 16 17 17 17 19 18 21 17 12 15 24 31 60 97 96 89 97
41 39 41 44 47 48 45 40 34 34 31 30 28 26 23 20 20 22 20 17 16 15 13 13 12 12 10 9 12 14 16 16 15 17 18 14 17 18 29 64 100 76 85
49 51 56 56 51 45 38 33 32 32 32 29 25 27 28 25 25 23 23 18 15 13 9 7 5 4 4 5 8 13 17 20 19 14 13 17 16 18 18 29 85 90 91
65 63 55 49 42 38 37 37 38 34 25 21 22 24 23 31 32 19 11 9 5 3 3 3 3 4 4 2 2 2 5 10 20 22 15 13 17 16 17 15 29 51 93

GFSSE_500_rhum_171.txt.gz
RH
36 32 27 19 19 19 18 18 18 18 18 21 21 18 11 5 4 4 4 4 4 4 5 5 5 6 5 4 4 3 3 3 3 3 3 3 3 3 2 3 4 4 5
42 41 33 25 18 18 17 18 18 17 20 22 24 24 22 20 14 8 4 4 5 5 5 5 5 5 4 4 4 3 3 3 3 3 3 3 3 3 4 4 5 4 6
42 40 34 32 21 18 18 17 18 17 18 20 23 22 21 18 17 18 18 15 10 6 4 4 4 4 4 3 3 3 3 3 3 3 4 6 6 7 7 6 5 5 7
31 31 30 33 24 20 17 17 17 17 18 19 21 22 22 20 19 17 17 16 18 19 18 17 16 15 11 9 7 7 7 8 10 11 12 12 12 11 10 8 6 6 6
33 37 30 32 30 24 21 19 17 18 18 20 23 22 23 23 22 21 20 18 16 16 16 16 16 18 18 16 15 14 14 14 13 13 13 13 14 14 13 12 9 8 8
32 44 38 30 28 26 23 21 19 18 18 20 23 26 27 26 25 21 20 20 21 22 24 24 23 20 18 17 15 15 14 13 14 13 12 12 14 16 18 14 13 11 12
29 28 30 28 25 23 23 20 19 20 20 20 21 23 25 28 27 26 24 22 22 23 26 28 36 37 42 38 36 25 18 18 17 18 15 11 13 13 14 14 13 12 13
30 30 25 22 21 22 21 21 20 20 27 27 28 22 21 21 25 27 25 28 29 29 32 40 45 49 48 54 47 44 28 24 22 21 21 16 12 13 13 14 15 18 17
34 36 37 36 32 28 28 29 28 25 22 22 23 24 24 24 27 27 28 31 32 35 40 47 48 48 54 61 64 65 42 28 26 24 24 22 16 18 14 18 21 23 21
33 31 30 33 35 37 41 43 43 42 40 35 32 31 32 34 40 41 43 41 43 40 43 45 46 46 50 57 65 84 75 34 31 33 34 33 28 15 17 21 25 27 23
31 30 31 33 39 43 44 46 47 49 49 47 46 43 40 40 41 39 47 57 47 50 45 45 54 56 56 59 70 76 92 79 65 67 62 56 47 30 17 21 26 29 27
32 34 35 37 40 40 37 35 34 35 34 33 34 37 44 46 44 42 43 46 45 48 51 63 75 68 68 76 79 88 88 90 85 87 84 68 73 58 33 20 21 27 23
36 38 37 40 41 38 36 34 31 30 30 29 28 28 32 35 38 42 42 40 37 36 37 37 35 35 42 74 93 92 96 91 88 80 75 80 82 82 60 38 22 19 18
37 34 32 36 39 38 37 37 37 36 34 25 22 22 22 24 25 25 24 25 28 32 34 35 35 34 34 32 37 44 83 88 80 83 80 72 82 84 87 79 44 25 18
33 33 37 39 37 35 34 35 35 39 41 35 27 26 25 24 23 22 20 20 19 18 18 19 24 31 35 37 37 33 40 55 93 82 79 70 86 86 97 93 87 62 26
47 45 43 39 37 37 39 39 35 30 30 32 35 36 30 28 26 23 18 16 16 17 19 20 18 17 21 23 29 33 32 38 50 81 98 79 74 91 94 96 93 89 62
48 47 45 43 41 40 40 37 32 27 27 26 25 29 33 31 25 22 20 19 17 18 16 16 16 19 18 15 20 26 25 26 29 40 62 86 76 77 92 100 97 92 92
37 33 34 32 34 40 40 38 37 35 33 30 22 17 17 17 18 20 22 25 25 24 22 19 17 16 18 20 16 14 21 25 25 26 35 47 66 78 81 97 100 98 88
22 20 21 24 28 32 33 33 31 25 19 18 18 21 25 26 26 25 23 23 24 24 23 21 20 18 17 17 20 19 15 16 17 21 22 30 37 55 74 74 94 96 92
24 25 25 25 26 26 24 23 21 20 22 23 26 30 32 35 33 26 24 25 26 26 24 23 21 20 20 19 18 20 21 19 15 15 14 16 22 32 44 46 63 89 99
24 24 24 26 28 30 30 27 27 29 32 37 43 43 41 34 27 25 24 22 21 21 21 19 18 16 16 15 14 15 17 23 27 28 17 15 12 13 29 41 46 71 93
23 25 26 27 30 35 36 36 38 42 49 50 45 39 33 29 28 27 26 24 21 17 13 11 9 9 11 10 8 7 7 9 11 15 22 24 21 15 11 24 41 51 76
36 35 33 32 33 40 44 47 53 55 51 45 37 32 29 26 26 23 17 14 14 14 14 15 14 13 13 14 12 9 7 6 6 10 10 13 19 22 23 14 16 48 61
40 40 38 43 51 54 57 62 58 51 42 33 29 27 26 22 19 15 14 14 15 17 23 23 20 16 13 10 8 6 6 5 5 4 6 10 10 15 19 22 20 23 38
39 42 49 58 61 64 61 56 48 34 25 23 25 24 21 19 19 21 21 24 30 28 22 15 8 3 3 3 3 2 2 2 2 2 3 5 8 10 12 17 21 19 22
42 50 60 66 64 58 51 37 23 20 22 24 22 20 19 24 27 24 27 26 15 10 6 4 4 4 3 4 4 8 10 11 15 13 3 2 3 7 10 10 18 21 19

GFSSE_500_rhum_177.txt.gz
RH
35 38 38 25 26 25 16 15 12 11 12 14 14 14 14 14 14 9 4 3 3 3 3 4 4 4 4 4 4 3 3 2 2 2 3 4 6 8 9 9 10 9 8
33 30 18 20 17 24 19 15 13 11 12 13 14 14 16 16 17 16 14 14 12 8 4 3 3 3 3 3 3 5 7 8 9 9 10 9 9 8 8 8 9 11 12
24 29 22 18 19 15 16 14 14 13 12 12 13 14 15 16 16 16 17 17 17 15 14 13 13 13 13 13 14 13 13 12 11 10 9 9 9 9 9 8 6 9 12
25 28 20 16 16 16 15 14 15 15 14 12 13 14 15 16 18 20 21 22 20 19 18 17 16 19 20 21 22 24 25 27 26 24 25 15 11 11 11 11 10 10 7
23 23 19 18 20 22 21 19 18 15 15 15 15 16 17 17 18 19 20 22 25 25 24 22 21 21 22 22 23 25 29 31 32 31 32 33 23 12 13 12 12 12 8
16 14 15 19 23 26 26 29 28 24 21 18 17 17 17 21 22 23 21 19 19 19 21 22 21 23 25 25 27 32 38 40 40 41 41 44 33 18 15 13 13 16 15
12 13 18 21 24 24 23 24 25 26 26 26 26 27 28 27 25 22 21 20 23 26 30 28 25 26 28 30 33 37 42 42 47 50 52 55 47 26 22 20 17 16 14
17 21 22 21 20 24 26 24 24 24 23 20 20 21 23 27 31 32 34 35 36 39 41 42 43 45 47 42 41 43 41 48 54 53 50 63 61 32 38 39 30 20 11
22 22 21 19 21 26 27 24 25 23 20 19 20 19 18 19 21 22 24 24 27 29 34 38 39 39 39 40 40 51 58 56 51 56 69 70 82 53 42 56 63 42 21
27 26 24 21 22 27 28 28 25 22 21 24 26 27 27 26 25 22 21 20 20 22 22 22 23 22 23 23 25 28 31 30 36 43 82 84 86 77 64 68 62 55 44
29 28 26 22 23 26 26 28 26 26 28 31 32 31 31 28 25 23 21 20 19 19 18 18 17 16 16 17 18 18 19 20 25 41 52 66 92 93 82 70 75 72 70
32 31 30 29 25 25 25 28 29 30 31 32 32 31 28 24 24 24 24 24 25 20 21 20 21 21 20 21 20 18 16 16 17 19 26 50 90 88 94 80 74 77 71
33 34 34 32 31 30 28 28 29 30 29 27 23 20 16 12 12 13 13 13 13 11 12 12 13 13 14 14 16 17 18 16 14 14 18 29 39 58 90 96 72 65 76
38 35 30 29 30 29 25 17 12 10 10 9 8 8 10 9 10 11 12 13 12 11 12 12 14 16 17 17 16 15 15 14 13 14 16 16 21 29 56 72 97 95 71
38 34 23 19 19 16 10 9 9 9 9 10 11 12 13 14 15 15 15 15 15 15 15 16 17 18 18 20 20 19 20 19 16 15 16 16 16 15 24 47 68 79 96
38 34 21 12 10 10 10 10 11 13 15 16 17 18 19 20 19 19 19 19 18 19 19 20 20 20 18 15 16 16 18 19 18 18 16 19 18 17 18 26 43 62 78
35 34 19 8 9 10 9 12 15 17 20 23 25 25 25 23 22 22 22 22 22 21 20 19 20 19 19 19 18 18 18 18 18 17 18 18 18 21 20 17 20 30 62
32 31 18 10 7 9 12 17 18 24 29 31 32 30 28 27 24 22 23 23 22 19 17 20 19 20 20 20 19 17 16 15 16 16 16 18 20 21 21 20 18 28 45
32 28 18 11 8 13 19 21 31 33 29 27 27 29 28 29 31 31 28 26 24 19 21 22 22 23 23 19 16 14 12 12 13 13 14 15 17 18 20 20 20 19 20
31 22 8 8 14 20 25 37 34 29 28 29 30 32 33 34 31 32 31 27 24 26 28 27 25 19 15 11 7 7 9 10 10 11 11 12 12 13 15 17 18 20 19
36 25 10 14 22 29 40 34 32 33 33 33 33 33 32 36 34 35 31 29 30 30 28 18 14 12 10 9 7 6 6 8 9 10 9 10 11 11 10 10 12 16 18
35 21 15 22 26 38 38 36 34 33 35 35 34 34 34 36 41 42 35 36 34 28 16 14 11 8 7 6 6 5 6 17 17 16 16 15 15 13 12 10 9 10 12
18 16 23 27 30 40 39 33 32 38 40 41 42 39 41 40 47 37 36 36 29 19 14 11 9 8 7 7 11 10 10 14 18 15 11 10 9 8 8 8 9 9 9
26 29 32 36 40 43 34 30 42 46 47 51 49 53 55 48 37 39 38 28 18 16 12 11 10 9 9 10 20 28 29 25 22 18 12 5 5 5 6 6 6 6 7
39 39 43 47 50 35 31 45 55 60 61 62 65 59 43 41 39 38 30 21 19 15 12 13 11 11 23 29 31 31 19 14 12 14 17 12 6 6 6 3 4 4 5
55 61 60 52 36 49 62 68 74 72 73 72 56 49 48 46 40 34 25 22 18 14 15 14 18 26 34 31 26 18 13 11 11 12 13 14 12 8 7 5 4 5 3

GFSSE_500_rhum_180.txt.gz
RH
23 24 21 13 15 18 21 16 16 13 12 13 14 14 14 15 15 13 13 12 10 7 5 4 4 4 4 4 3 4 5 8 10 9 9 8 8 8 8 8 8 7 7
18 22 19 15 14 14 17 18 16 15 13 13 13 13 13 14 15 16 17 17 17 16 15 14 13 12 13 12 13 12 12 15 17 19 15 11 11 10 10 10 10 9 7
17 23 20 15 13 15 16 14 15 15 14 14 14 13 13 14 14 15 15 16 16 17 16 17 17 16 16 18 19 19 19 19 19 20 22 23 22 20 13 11 11 12 12
20 26 20 15 15 21 25 24 20 17 16 16 15 14 13 13 14 15 16 17 18 18 18 19 21 21 19 18 17 18 19 18 19 20 24 26 28 27 30 19 12 12 12
25 21 16 14 19 24 26 26 26 26 24 20 17 16 16 16 16 19 19 19 19 16 16 19 18 20 20 20 20 22 23 22 23 28 34 36 31 35 38 33 17 14 13
18 14 13 17 21 22 23 24 25 26 27 27 26 25 24 24 26 26 26 26 26 25 26 29 35 41 40 34 31 34 33 31 29 31 35 40 40 40 41 40 22 19 16
12 14 21 22 22 22 25 27 26 26 26 24 20 19 20 21 22 23 23 22 21 22 26 30 34 36 38 38 40 37 39 42 50 48 48 48 46 46 44 48 29 25 25
19 22 23 24 24 24 26 28 26 23 23 20 19 19 18 18 18 17 18 17 17 18 17 17 19 24 28 30 30 26 22 26 35 26 30 32 45 64 52 59 39 32 39
25 25 26 27 26 23 26 28 28 25 22 20 20 22 25 26 22 19 18 17 17 15 14 15 16 18 17 17 16 16 16 17 18 17 17 21 30 45 58 68 64 49 41
25 28 29 29 27 24 23 25 25 26 24 24 27 29 28 26 23 23 24 20 16 15 14 14 14 14 15 15 15 15 15 16 16 16 16 16 17 22 46 59 72 70 69
30 32 32 30 31 30 26 25 25 26 24 26 28 28 24 22 17 9 11 12 11 12 12 12 12 12 12 12 13 12 13 14 14 14 16 16 16 17 23 62 77 82 60
32 34 34 31 30 29 29 28 27 27 27 26 21 14 10 9 8 8 9 10 11 11 12 13 13 12 11 12 13 14 16 18 17 15 13 13 13 13 14 15 46 74 91
33 36 37 33 28 24 24 25 24 16 12 9 8 8 8 9 9 10 11 12 13 13 14 14 15 16 16 17 18 19 18 18 19 19 20 17 13 12 11 11 20 41 84
33 37 38 34 25 17 14 15 10 8 9 9 10 11 13 14 15 16 16 16 17 18 18 19 19 18 18 16 16 16 15 16 16 16 17 18 19 15 13 13 18 38 98
33 35 40 37 27 12 10 9 9 9 11 13 16 17 20 23 25 24 23 23 23 22 20 20 18 16 15 14 13 12 12 13 13 14 16 17 18 18 16 14 14 19 58
35 33 36 37 30 12 8 8 8 9 14 17 20 27 27 25 25 24 24 23 24 24 22 18 16 15 14 11 11 12 13 13 13 14 17 19 17 16 16 15 14 17 18
36 38 33 32 33 21 10 6 8 12 17 20 32 29 23 23 25 26 27 24 23 22 19 18 17 15 14 14 16 16 18 18 18 19 18 16 16 15 15 15 14 14 16
38 40 35 31 31 25 15 8 8 16 19 30 33 27 27 28 29 30 28 24 22 22 20 18 18 17 17 16 22 24 22 20 18 15 14 13 11 12 13 14 15 14 16
39 38 35 30 30 22 9 7 11 19 27 35 32 30 29 29 31 32 29 24 24 23 22 23 20 18 17 20 24 21 17 13 11 9 9 8 7 8 10 13 14 15 15
36 35 33 30 34 24 10 10 16 21 34 35 34 31 30 32 36 34 31 27 28 29 30 26 23 21 21 23 23 15 10 8 7 7 6 6 7 8 9 11 12 13 15
30 33 30 31 38 30 17 14 20 27 38 36 34 34 39 40 40 35 33 33 35 35 30 27 25 24 23 22 19 15 10 8 7 6 6 8 12 14 12 13 11 12 12
39 32 36 42 32 21 20 22 28 36 40 39 36 39 43 45 43 47 47 44 38 34 31 28 26 23 24 20 19 15 12 9 8 8 8 14 18 20 18 17 18 16 13
40 42 32 22 23 27 32 34 41 46 45 38 35 42 46 47 54 58 50 45 41 37 36 32 28 26 25 19 15 13 8 6 6 14 24 26 24 20 17 15 14 16 16
37 27 27 30 37 43 46 53 56 47 42 43 51 52 55 59 60 59 56 48 45 41 39 37 34 32 21 17 13 9 7 8 8 8 18 26 17 9 8 7 6 7 6
41 42 42 40 43 51 66 60 43 44 46 61 68 71 66 64 69 67 56 55 48 44 45 44 37 25 19 13 8 10 18 18 18 17 12 20 22 14 11 10 8 6 5
66 69 66 62 58 87 94 68 45 50 72 78 78 77 74 75 74 71 67 60 53 55 53 42 31 22 13 12 14 20 20 19 16 13 12 13 16 15 12 13 12 10 7